TimeEDT,TemperatureF,Dew PointF,Humidity,Sea Level PressureIn,VisibilityMPH,Wind Direction,Wind SpeedMPH,Gust SpeedMPH,PrecipitationIn,Events,Conditions,WindDirDegrees,DateUTC
12:51 AM,69.1,63.0,81,30.12,10.0,SSW,5.8,-,N/A,,Scattered Clouds,200,2013-08-22 04:51:00
1:51 AM,68.0,63.0,84,30.09,10.0,South,5.8,-,N/A,,Partly Cloudy,190,2013-08-22 05:51:00
2:51 AM,66.9,63.0,87,30.09,10.0,SSE,3.5,-,N/A,,Clear,160,2013-08-22 06:51:00
3:51 AM,66.9,64.0,90,30.09,10.0,SW,4.6,-,N/A,,Mostly Cloudy,220,2013-08-22 07:51:00
4:51 AM,66.9,64.0,90,30.08,10.0,Calm,Calm,-,N/A,,Mostly Cloudy,0,2013-08-22 08:51:00
5:51 AM,66.9,64.0,90,30.08,9.0,SE,3.5,-,N/A,,Overcast,140,2013-08-22 09:51:00
6:51 AM,66.0,64.0,93,30.08,6.0,Calm,Calm,-,N/A,,Mostly Cloudy,0,2013-08-22 10:51:00
7:14 AM,66.2,64.4,94,30.10,7.0,South,3.5,-,N/A,,Scattered Clouds,170,2013-08-22 11:14:00
7:51 AM,66.9,64.9,93,30.07,6.0,South,5.8,-,N/A,,Scattered Clouds,180,2013-08-22 11:51:00
8:03 AM,66.2,64.4,94,30.09,6.0,SSW,5.8,-,N/A,,Overcast,200,2013-08-22 12:03:00
8:51 AM,69.1,64.9,87,30.09,8.0,SSW,4.6,-,N/A,,Mostly Cloudy,210,2013-08-22 12:51:00
8:58 AM,69.8,64.4,83,30.11,8.0,SW,3.5,-,N/A,,Mostly Cloudy,230,2013-08-22 12:58:00
9:06 AM,69.8,66.2,88,30.11,8.0,Variable,3.5,-,N/A,,Mostly Cloudy,0,2013-08-22 13:06:00
9:51 AM,73.0,66.0,79,30.09,10.0,Variable,3.5,-,N/A,,Mostly Cloudy,0,2013-08-22 13:51:00
10:51 AM,75.9,66.9,74,30.09,10.0,Calm,Calm,-,N/A,,Mostly Cloudy,0,2013-08-22 14:51:00
11:51 AM,82.9,68.0,60,30.08,10.0,West,9.2,17.3,N/A,,Scattered Clouds,280,2013-08-22 15:51:00
12:51 PM,84.0,66.9,56,30.07,10.0,WNW,12.7,18.4,N/A,,Mostly Cloudy,290,2013-08-22 16:51:00
1:51 PM,84.9,66.0,53,30.05,10.0,WNW,16.1,-,N/A,,Mostly Cloudy,300,2013-08-22 17:51:00
2:44 PM,75.2,69.8,83,30.07,7.0,NNW,13.8,31.1,0.11,Rain-Thunderstorm,Thunderstorms and Rain,330,2013-08-22 18:44:00
2:51 PM,78.1,69.1,74,30.05,7.0,Variable,3.5,-,0.20,Rain-Thunderstorm,Thunderstorms and Rain,0,2013-08-22 18:51:00
3:11 PM,84.2,71.6,66,30.05,8.0,West,12.7,-,0.00,,Scattered Clouds,280,2013-08-22 19:11:00
3:51 PM,84.9,68.0,57,30.03,8.0,WNW,15.0,21.9,0.00,,Mostly Cloudy,300,2013-08-22 19:51:00
4:51 PM,82.0,66.9,60,30.02,10.0,West,13.8,-,0.00,,Mostly Cloudy,280,2013-08-22 20:51:00
5:51 PM,80.1,66.0,62,30.03,10.0,West,13.8,-,N/A,,Overcast,280,2013-08-22 21:51:00
6:51 PM,78.1,66.0,66,30.03,10.0,WNW,13.8,-,N/A,,Overcast,290,2013-08-22 22:51:00
7:51 PM,77.0,66.9,71,30.01,10.0,NW,9.2,-,N/A,,Overcast,310,2013-08-22 23:51:00
8:51 PM,75.9,68.0,76,30.00,10.0,WNW,4.6,-,N/A,,Overcast,300,2013-08-23 00:51:00
9:51 PM,75.0,68.0,79,30.01,10.0,West,8.1,-,N/A,,Overcast,270,2013-08-23 01:51:00
10:51 PM,73.9,68.0,82,30.02,10.0,NW,3.5,-,N/A,,Overcast,310,2013-08-23 02:51:00
11:51 PM,73.9,68.0,82,30.02,10.0,West,3.5,-,N/A,,Overcast,280,2013-08-23 03:51:00